| Date | Time | Temp. (oF) | Dew Point (oF) | Rel. Hum. (%) | Press. (in.) | Wind Dir. | Wind Speed (mph) | Hourly Rainfall (in.) |
|
|---|---|---|---|---|---|---|---|---|---|
| 1 | 02/19 | 00:00 | 18 | 7 | 63 | 30.27 | W | 5 | 0.00 |
| 2 | 02/18 | 23:00 | 19 | 7 | 59 | 30.26 | WNW | 9 | 0.00 |
| 3 | 02/18 | 22:00 | 20 | 7 | 57 | 30.27 | W | 5 | 0.00 |
| 4 | 02/18 | 21:00 | 21 | 6 | 54 | 30.26 | WNW | 9 | 0.00 |
| 5 | 02/18 | 20:00 | 21 | 5 | 51 | 30.23 | WNW | 8 | 0.00 |
| 6 | 02/18 | 19:00 | 22 | 6 | 50 | 30.21 | W | 14 | 0.00 |
| 7 | 02/18 | 18:00 | 23 | 6 | 49 | 30.17 | WNW | 6 | 0.00 |
| 8 | 02/18 | 17:00 | 25 | 7 | 47 | 30.15 | NW | 8 | 0.00 |
| 9 | 02/18 | 16:00 | 26 | 8 | 48 | 30.13 | WNW | 9 | 0.00 |
| 10 | 02/18 | 15:00 | 26 | 8 | 48 | 30.11 | WNW | 18 | 0.00 |
| 11 | 02/18 | 14:00 | 26 | 8 | 48 | 30.10 | SW | 9 | 0.00 |
| 12 | 02/18 | 13:00 | 26 | 8 | 47 | 30.11 | W | 6 | 0.00 |
| 13 | 02/18 | 12:00 | 24 | 6 | 46 | 30.13 | WNW | 9 | 0.00 |
| 14 | 02/18 | 11:00 | 24 | 8 | 52 | 30.13 | W | 12 | 0.00 |
| 15 | 02/18 | 10:00 | -5 | -18 | 50 | 1020.00 | W | 31 | 0.00 |
| 16 | 02/18 | 09:00 | 21 | 15 | 78 | 30.11 | WNW | 16 | 0.00 |
| 17 | 02/18 | 08:00 | 22 | 12 | 66 | 30.10 | NW | 7 | 0.00 |
| 18 | 02/18 | 07:00 | 21 | 13 | 71 | 30.07 | W | 12 | 0.00 |
| 19 | 02/18 | 06:00 | 22 | 14 | 73 | 30.05 | SW | 7 | 0.00 |
| 20 | 02/18 | 05:00 | 23 | 14 | 68 | 30.03 | WNW | 8 | 0.00 |
| 21 | 02/18 | 04:00 | 23 | 11 | 62 | 30.01 | WNW | 8 | 0.00 |
| 22 | 02/18 | 03:00 | 24 | 12 | 60 | 30.00 | WSW | 5 | 0.00 |
| 23 | 02/18 | 02:00 | 24 | 11 | 58 | 30.01 | W | 8 | 0.00 |
| 24 | 02/18 | 01:00 | 25 | 12 | 59 | 30.01 | NW | 4 | 0.00 |